SCOUT X-4 R/B, 871

Orbit data source: Space-Track

SCOUT X-4 R/B, 871 is space debris in LEO originally from a launch on Tue, 25 Aug 1964 UTC launched from the Air Force Western Test Range (AFWTR). Debris objects in space refer to the collection of defunct objects orbiting the Earth. Examples of debris include non-operational satellites, rocket bodies, and fragments generated from explosions, collisions, or faulty payload assembly.

Loading next visibility...
Identifier
871, 1964-051B
Orbit
LEO
Country
Flag of USUS
Related business
Manufacturer
ABL
Mission
Spacecraft
Bus & Motor
ALTAIR, Unknown motor
Mass
33 kg wet, 33 kg dry
Launch date (UTC)
1964-08-25 (62 years ago)
Launch vehicle
Unknown
Launch site
Air Force Western Test Range (AFWTR)
Object type
Payload
Rocket body
Debris
Shape & HBR
Unknown
Radar Cross Section
Medium (>0.1 m² and <1 m²)

Expand to show TLE details & history
Last TLE update: 11 hours ago

TLE from 11 hours ago
0 SCOUT X-4 R/B
1   871U 64051B   26112.03557863  .00000132  00000-0  81383-4 0  9994
2   871  79.8911 129.8668 0084992 295.8275  63.4137 14.00667505137002
Epoch: 2026-04-22T00:51Z
TLE epoch observation values (Epoch: 2026-04-22T00:51:13.993Z)
Latitude
-0.00005°
Longitude
-93.0443°
Altitude
867.09 km
Speed
7.433 km/s
True Right ascension
08h 39m 28s
True Declination
0° 00' 00"
Sunlit
Object was in daylight at epoch
Visualization orbit readout
Latitude
Unknown
Longitude
Unknown
Altitude
Unknown
Speed
Unknown
Apparent Right ascension
Unknown
Apparent Declination
Unknown
Sunlit
N/A
Visualization observer readout
Local Sidereal Time
19:06:52
Azimuth
Unknown
Elevation
Unknown
Doppler factor
Unknown
Orbital elements
Apogee altitude
950.503 km
Perigee altitude
826.978 km
Semi-major axis
7,266.877 km
Eccentricity
0.0085
Inclination
79.8911°
RAAN
129.8668°
Arg. of periapsis
295.8275°
True anomaly
64.28878°
Mean anomaly
63.4137°
Eccentric anomaly
63.85083°
Mean motion
3.50366 °/min
Orbital period
102.75 mins
BSTAR
0.000081383
Loading maneuver chart data...
Computing Atmospheric mass density...
Loading historical data...
Loading historical data...
Loading historical data...
Loading historical data...
Loading historical data...
Loading historical data...
Loading historical data...

Documentation

Showing up to 5 results
|